^^
Saratoga-Weather Station Historical Data
Daily Summary for March 15, 2020 Units:  English    Metric   Both
Daily Weekly Monthly Yearly Custom
  High: Low: Average:
Temperature: 56.1 °F 46.2 °F 50.9 °F
Dew Point: 46.6 °F 41 °F 43.5 °F
Humidity: 89% 63% 76%
Wind Speed: 8.9mph 0mph 2.1mph
Wind Gust: 12mph - -
Wind- - SSW
Pressure: 30.2 in 29.9 in -
Precipitation: 0.02 in    
Historical Graphs
 
 
Tabular Data for March 15, 2020
Time Temperature Dew Point Pressure Wind Wind Speed Wind Gust Humidity Rainfall Rate (Hourly) solar
00:03 52 °F 43.2 °F 30 in SW 8.1 mph 9 mph 72% 0 in 0 W/m2
00:08 52 °F 43.5 °F 30 in West 2.9 mph 5 mph 73% 0 in 0 W/m2
00:13 52 °F 43.5 °F 30 in SW 2 mph 9 mph 73% 0 in 0 W/m2
00:18 52 °F 43.2 °F 30 in Calm   2 mph 72% 0 in 0 W/m2
00:23 52 °F 43.2 °F 30 in NNW 2 mph 6 mph 72% 0 in 0 W/m2
00:28 51.8 °F 43.3 °F 30 in Calm   7 mph 73% 0 in 0 W/m2
00:33 51.6 °F 43.3 °F 30 in West 2 mph 6 mph 73% 0 in 0 W/m2
00:38 51.4 °F 43.2 °F 30 in East 2.9 mph 8 mph 73% 0 in 0 W/m2
00:43 51.4 °F 43.5 °F 30 in SW 2 mph 3 mph 74% 0 in 0 W/m2
00:48 51.3 °F 43.3 °F 30 in NNE 0.9 mph 7 mph 74% 0 in 0 W/m2
00:53 51.3 °F 43.5 °F 30 in SW 2 mph 2 mph 75% 0 in 0 W/m2
00:58 51.3 °F 43.5 °F 30 in SW 0.9 mph 6 mph 75% 0 in 0 W/m2
01:04 51.3 °F 43.3 °F 30 in NNW 2 mph 2 mph 74% 0 in 0 W/m2
01:09 51.3 °F 43.5 °F 30 in Calm   6 mph 75% 0 in 0 W/m2
01:14 51.3 °F 43.5 °F 30 in Calm   4 mph 75% 0 in 0 W/m2
01:19 51.1 °F 43.7 °F 30 in Calm   6 mph 76% 0 in 0 W/m2
01:24 50.9 °F 43.5 °F 30 in NE 2 mph 2 mph 76% 0 in 0 W/m2
01:29 50.7 °F 43.7 °F 30 in East 0.9 mph 6 mph 77% 0 in 0 W/m2
01:34 50.5 °F 43.5 °F 30 in ENE 2.9 mph 4 mph 77% 0 in 0 W/m2
01:39 50.5 °F 43.5 °F 30 in East 2.9 mph 6 mph 77% 0 in 0 W/m2
01:44 50.4 °F 43.3 °F 30 in East 0.9 mph 7 mph 77% 0 in 0 W/m2
01:49 50.4 °F 43.3 °F 30 in ENE 2 mph 5 mph 77% 0 in 0 W/m2
01:54 50.4 °F 43.2 °F 30 in ENE 4.9 mph 6 mph 76% 0 in 0 W/m2
01:59 50.4 °F 43.2 °F 30 in NE 2.9 mph 4 mph 76% 0 in 0 W/m2
02:04 50.2 °F 43 °F 30 in Calm   1 mph 76% 0 in 0 W/m2
02:09 50.2 °F 43 °F 30 in Calm   5 mph 76% 0 in 0 W/m2
02:14 50 °F 42.8 °F 29.9 in East 4.9 mph 6 mph 76% 0 in 0 W/m2
02:19 49.8 °F 42.6 °F 29.9 in ENE 4 mph 4 mph 76% 0 in 0 W/m2
02:24 49.8 °F 42.6 °F 29.9 in East 0.9 mph 2 mph 76% 0 in 0 W/m2
02:29 49.6 °F 42.4 °F 29.9 in East 4.9 mph 5 mph 76% 0 in 0 W/m2
02:34 49.5 °F 42.3 °F 30 in ENE 4.9 mph 7 mph 76% 0 in 0 W/m2
02:39 49.3 °F 42.4 °F 30 in ESE 2.9 mph 4 mph 77% 0 in 0 W/m2
02:44 49.1 °F 42.6 °F 30 in ESE 2.9 mph 4 mph 78% 0 in 0 W/m2
02:49 48.9 °F 42.4 °F 30 in ENE 2 mph 6 mph 78% 0 in 0 W/m2
02:54 48.7 °F 42.3 °F 30 in East 2.9 mph 7 mph 78% 0 in 0 W/m2
02:59 48.7 °F 42.3 °F 30 in ENE 2 mph 3 mph 78% 0 in 0 W/m2
03:04 48.7 °F 42.3 °F 30 in ENE 0.9 mph 3 mph 78% 0 in 0 W/m2
03:09 48.7 °F 42.3 °F 30 in East 2 mph 5 mph 78% 0 in 0 W/m2
03:14 48.7 °F 42.3 °F 30 in Calm   4 mph 78% 0 in 0 W/m2
03:19 48.9 °F 42.1 °F 30 in ENE 2 mph 5 mph 77% 0 in 0 W/m2
03:24 48.9 °F 42.1 °F 30 in NE 2 mph 6 mph 77% 0 in 0 W/m2
03:29 48.9 °F 42.1 °F 30 in ENE 8.1 mph 8 mph 77% 0 in 0 W/m2
03:34 48.9 °F 42.1 °F 30 in Calm   2 mph 77% 0 in 0 W/m2
03:39 48.7 °F 41.9 °F 30 in ENE 2 mph 4 mph 77% 0 in 0 W/m2
03:44 48.7 °F 42.3 °F 30 in ENE 0.9 mph 5 mph 78% 0 in 0 W/m2
03:49 48.6 °F 42.1 °F 29.9 in Calm   5 mph 78% 0 in 0 W/m2
03:54 48.6 °F 42.1 °F 29.9 in Calm   2 mph 78% 0 in 0 W/m2
03:59 48.6 °F 42.1 °F 30 in North 0.9 mph 2 mph 78% 0 in 0 W/m2
04:04 48.6 °F 42.1 °F 30 in NE 2.9 mph 3 mph 78% 0 in 0 W/m2
04:09 48.4 °F 41.9 °F 30 in NNW 2.9 mph 4 mph 78% 0 in 0 W/m2
04:14 48.4 °F 41.9 °F 30 in North 2.9 mph 5 mph 78% 0 in 0 W/m2
04:19 48.4 °F 41.9 °F 30 in North 0.9 mph 6 mph 78% 0 in 0 W/m2
04:24 48.4 °F 42.3 °F 29.9 in North 4.9 mph 8 mph 79% 0 in 0 W/m2
04:29 48.4 °F 42.3 °F 29.9 in WNW 2 mph 8 mph 79% 0 in 0 W/m2
04:34 48.4 °F 42.3 °F 29.9 in North 2.9 mph 5 mph 79% 0 in 0 W/m2
04:40 48 °F 41.9 °F 30 in Calm   4 mph 79% 0 in 0 W/m2
04:45 48 °F 41.9 °F 30 in North 2 mph 5 mph 79% 0 in 0 W/m2
04:50 48 °F 41.9 °F 30 in NNE 2 mph 5 mph 79% 0 in 0 W/m2
04:55 47.8 °F 41.7 °F 30 in NW 4 mph 5 mph 79% 0 in 0 W/m2
05:00 47.8 °F 41.7 °F 30 in NW 0.9 mph 5 mph 79% 0 in 0 W/m2
05:05 47.7 °F 41.7 °F 30 in NNE 4 mph 5 mph 80% 0 in 0 W/m2
05:10 47.7 °F 41.7 °F 30 in NNW 2 mph 8 mph 80% 0 in 0 W/m2
05:15 47.5 °F 41.5 °F 30 in NE 2 mph 5 mph 80% 0 in 0 W/m2
05:20 47.3 °F 41.4 °F 30 in North 8.1 mph 8 mph 80% 0 in 0 W/m2
05:25 47.1 °F 41.5 °F 30 in North 2 mph 5 mph 81% 0 in 0 W/m2
05:30 47.1 °F 41.5 °F 30 in SW 4 mph 4 mph 81% 0 in 0 W/m2
05:35 47.1 °F 41.5 °F 30 in NNE 2 mph 6 mph 81% 0 in 0 W/m2
05:40 47.1 °F 41.5 °F 30 in Calm   7 mph 81% 0 in 0 W/m2
05:45 46.9 °F 41.4 °F 30 in NE 0.9 mph 5 mph 81% 0 in 0 W/m2
05:50 46.9 °F 41.4 °F 30 in NW 2.9 mph 4 mph 81% 0 in 0 W/m2
05:55 46.8 °F 41.2 °F 30 in NNW 4.9 mph 5 mph 81% 0 in 0 W/m2
06:00 46.8 °F 41.2 °F 30 in ENE 8.1 mph 8 mph 81% 0 in 0 W/m2
06:05 46.9 °F 41.4 °F 30 in North 4 mph 5 mph 81% 0 in 0 W/m2
06:10 46.9 °F 41.4 °F 30 in Calm   5 mph 81% 0 in 0 W/m2
06:15 46.9 °F 41.4 °F 30 in Calm   7 mph 81% 0 in 0 W/m2
06:20 46.9 °F 41.4 °F 30 in NNE 4 mph 6 mph 81% 0 in 0 W/m2
06:25 46.9 °F 41.4 °F 30 in NNW 4.9 mph 8 mph 81% 0 in 0 W/m2
06:30 47.1 °F 41.4 °F 30 in NNW 4 mph 6 mph 80% 0 in 0 W/m2
06:35 47.1 °F 41.4 °F 30 in NW 4.9 mph 5 mph 80% 0 in 0 W/m2
06:40 47.1 °F 41.4 °F 30 in North 2.9 mph 4 mph 80% 0 in 0 W/m2
06:45 46.9 °F 41.2 °F 30 in North 4 mph 5 mph 80% 0 in 0 W/m2
06:50 46.8 °F 41.2 °F 30 in North 2.9 mph 6 mph 81% 0 in 0 W/m2
06:55 46.6 °F 41 °F 30 in Calm   5 mph 81% 0 in 0 W/m2
07:00 46.6 °F 41 °F 30 in NNE 0.9 mph 6 mph 81% 0 in 0 W/m2
07:05 46.6 °F 41 °F 30 in NE 4 mph 9 mph 81% 0 in 0 W/m2
07:10 46.6 °F 41.4 °F 30 in South 2 mph 5 mph 82% 0 in 0 W/m2
07:15 46.6 °F 41 °F 30 in NE 2.9 mph 4 mph 81% 0 in 0 W/m2
07:20 46.6 °F 41 °F 30 in NE 4.9 mph 6 mph 81% 0 in 0 W/m2
07:25 46.6 °F 41 °F 30 in NNE 2 mph 5 mph 81% 0 in 0 W/m2
07:30 46.6 °F 41 °F 30 in NNW 4 mph 6 mph 81% 0 in 0 W/m2
07:35 46.4 °F 41.2 °F 30 in ENE 2.9 mph 5 mph 82% 0 in 0 W/m2
07:40 46.4 °F 41.2 °F 30 in ENE 0.9 mph 6 mph 82% 0 in 0 W/m2
07:45 46.4 °F 41.2 °F 30 in NNE 6 mph 8 mph 82% 0 in 0 W/m2
07:50 46.2 °F 41 °F 30 in NNE 4.9 mph 7 mph 82% 0 in 0 W/m2
07:55 46.2 °F 41 °F 30 in North 2.9 mph 8 mph 82% 0 in 0 W/m2
08:00 46.2 °F 41 °F 30 in North 2.9 mph 7 mph 82% 0 in 0 W/m2
08:05 46.4 °F 41.2 °F 30 in North 2 mph 2 mph 82% 0 in 0 W/m2
08:10 46.6 °F 41.4 °F 30 in NNE 4.9 mph 7 mph 82% 0 in 0 W/m2
08:15 46.6 °F 41.4 °F 30 in NW 0.9 mph 5 mph 82% 0 in 0 W/m2
08:20 46.4 °F 41.2 °F 30 in North 2 mph 4 mph 82% 0 in 0 W/m2
08:25 46.6 °F 41.4 °F 30 in NW 2 mph 7 mph 82% 0 in 5 W/m2
08:30 46.6 °F 41 °F 30 in NE 0.9 mph 7 mph 81% 0 in 5 W/m2
08:35 46.6 °F 41 °F 30 in Calm   3 mph 81% 0 in 7 W/m2
08:40 46.8 °F 41.2 °F 30 in NNW 0.9 mph 8 mph 81% 0 in 11 W/m2
08:45 46.8 °F 41.2 °F 30 in ENE 0.9 mph 9 mph 81% 0 in 14 W/m2
08:50 46.8 °F 41.2 °F 30 in NW 2 mph 2 mph 81% 0 in 16 W/m2
08:55 46.6 °F 41 °F 30 in NNW 2.9 mph 8 mph 81% 0 in 16 W/m2
09:00 46.6 °F 41 °F 30 in Calm   5 mph 81% 0 in 16 W/m2
09:05 46.6 °F 41 °F 30 in NNW 2.9 mph 3 mph 81% 0 in 19 W/m2
09:10 46.8 °F 41.2 °F 30 in NE 0.9 mph 7 mph 81% 0 in 23 W/m2
09:15 46.8 °F 41.2 °F 30 in NE 0.9 mph 6 mph 81% 0 in 28 W/m2
09:20 46.9 °F 41.4 °F 30 in NNW 2 mph 8 mph 81% 0 in 39 W/m2
09:25 47.1 °F 41.4 °F 30 in West 2.9 mph 7 mph 80% 0 in 47 W/m2
09:30 47.5 °F 41.5 °F 30 in Calm   4 mph 80% 0 in 51 W/m2
09:35 47.7 °F 41.7 °F 30 in ENE 4 mph 6 mph 80% 0 in 58 W/m2
09:40 47.8 °F 41.7 °F 30 in North 4 mph 4 mph 79% 0 in 65 W/m2
09:45 47.8 °F 41.7 °F 30 in North 0.9 mph 10 mph 79% 0 in 63 W/m2
09:51 48 °F 41.5 °F 30 in SSW 2.9 mph 10 mph 78% 0 in 58 W/m2
09:56 48 °F 41.5 °F 30 in SW 0.9 mph 7 mph 78% 0 in 54 W/m2
10:01 48.4 °F 41.9 °F 30 in SSW 0.9 mph 10 mph 78% 0 in 63 W/m2
10:06 48.4 °F 41.9 °F 30 in North 2 mph 6 mph 78% 0 in 70 W/m2
10:11 48.4 °F 41.9 °F 30 in NNW 4 mph 8 mph 78% 0 in 72 W/m2
10:16 48.6 °F 42.1 °F 30 in Calm   4 mph 78% 0 in 76 W/m2
10:21 48.6 °F 41.7 °F 30 in Calm   10 mph 77% 0 in 81 W/m2
10:26 48.7 °F 41.9 °F 30 in WNW 4 mph 4 mph 77% 0 in 72 W/m2
10:31 48.9 °F 42.1 °F 30 in WNW 2 mph 4 mph 77% 0 in 72 W/m2
10:36 49.1 °F 42.3 °F 30 in WNW 2.9 mph 7 mph 77% 0 in 72 W/m2
10:41 49.3 °F 42.4 °F 30 in WNW 2 mph 8 mph 77% 0 in 77 W/m2
10:46 49.5 °F 42.3 °F 30 in WSW 2 mph 10 mph 76% 0 in 84 W/m2
10:51 49.6 °F 42.4 °F 30 in SSW 6 mph 9 mph 76% 0 in 74 W/m2
10:56 49.8 °F 42.6 °F 30 in WNW 2.9 mph 11 mph 76% 0 in 62 W/m2
11:01 49.8 °F 42.3 °F 30 in Calm   12 mph 75% 0 in 56 W/m2
11:07 50 °F 42.4 °F 30 in NNE 2.9 mph 3 mph 75% 0 in 46 W/m2
11:12 50.2 °F 42.6 °F 30 in WNW 2 mph 8 mph 75% 0 in 40 W/m2
11:17 50.4 °F 42.8 °F 30 in SSW 6 mph 8 mph 75% 0 in 39 W/m2
11:22 50.4 °F 42.4 °F 30 in NW 2 mph 11 mph 74% 0 in 39 W/m2
11:27 50.5 °F 42.6 °F 30 in NE 4 mph 7 mph 74% 0 in 46 W/m2
11:32 50.7 °F 42.8 °F 30 in WNW 4 mph 10 mph 74% 0 in 39 W/m2
11:37 51.1 °F 43.2 °F 30 in WNW 2 mph 5 mph 74% 0 in 46 W/m2
11:42 51.3 °F 43 °F 30 in East 2.9 mph 3 mph 73% 0 in 81 W/m2
11:47 51.4 °F 43.2 °F 30 in WNW 4 mph 8 mph 73% 0 in 91 W/m2
11:52 51.8 °F 43.3 °F 30 in SSW 6 mph 9 mph 73% 0 in 56 W/m2
11:57 52 °F 43.2 °F 30 in NW 4 mph 5 mph 72% 0 in 42 W/m2
12:02 52.2 °F 43.3 °F 30 in WSW 0.9 mph 7 mph 72% 0 in 40 W/m2
12:07 52.3 °F 43.2 °F 30 in WSW 4 mph 6 mph 71% 0 in 35 W/m2
12:12 52.3 °F 43.2 °F 30 in SE 2 mph 8 mph 71% 0 in 35 W/m2
12:17 52.5 °F 43.3 °F 30 in Calm   7 mph 71% 0 in 39 W/m2
12:22 52.5 °F 43.3 °F 30 in ESE 4 mph 9 mph 71% 0 in 40 W/m2
12:27 52.9 °F 43.7 °F 30 in SW 0.9 mph 5 mph 71% 0 in 39 W/m2
12:32 53.1 °F 43.5 °F 30 in NNE 6 mph 6 mph 70% 0 in 39 W/m2
12:37 53.1 °F 43.5 °F 30 in West 2.9 mph 3 mph 70% 0 in 39 W/m2
12:43 53.2 °F 43.7 °F 30 in WSW 0.9 mph 7 mph 70% 0 in 39 W/m2
12:48 53.2 °F 43.7 °F 30 in NNW 0.9 mph 12 mph 70% 0 in 40 W/m2
12:53 53.4 °F 43.5 °F 30 in WNW 0.9 mph 6 mph 69% 0 in 37 W/m2
12:58 53.6 °F 43.7 °F 30 in West 4 mph 4 mph 69% 0 in 39 W/m2
13:03 53.8 °F 43.9 °F 30 in Calm   5 mph 69% 0 in 42 W/m2
13:08 54 °F 43.7 °F 30 in Calm   8 mph 68% 0 in 35 W/m2
13:13 54 °F 43.7 °F 30 in NNW 0.9 mph 11 mph 68% 0 in 33 W/m2
13:18 54.1 °F 43.9 °F 30 in NE 2.9 mph 10 mph 68% 0 in 37 W/m2
13:23 54.3 °F 44.1 °F 30 in North 4.9 mph 11 mph 68% 0 in 33 W/m2
13:28 54.3 °F 43.5 °F 30 in ESE 2.9 mph 5 mph 67% 0 in 35 W/m2
13:33 54.5 °F 43.7 °F 30 in Calm   5 mph 67% 0 in 42 W/m2
13:38 54.7 °F 43.9 °F 30 in NNE 2.9 mph 5 mph 67% 0 in 37 W/m2
13:43 54.7 °F 43.5 °F 30 in WNW 2.9 mph 12 mph 66% 0 in 35 W/m2
13:48 54.7 °F 43.9 °F 30 in NNW 6 mph 6 mph 67% 0 in 37 W/m2
13:53 54.9 °F 44.1 °F 30 in NNE 0.9 mph 11 mph 67% 0 in 37 W/m2
13:58 54.9 °F 44.1 °F 30 in NNW 2.9 mph 4 mph 67% 0 in 47 W/m2
14:03 55 °F 43.9 °F 30 in NW 2.9 mph 12 mph 66% 0 in 39 W/m2
14:08 55 °F 43.9 °F 30 in WSW 2 mph 7 mph 66% 0 in 37 W/m2
14:13 55 °F 43.9 °F 30 in West 2.9 mph 12 mph 66% 0 in 39 W/m2
14:18 55.2 °F 44.1 °F 30 in NW 2 mph 9 mph 66% 0 in 39 W/m2
14:23 55.2 °F 44.1 °F 30 in West 0.9 mph 11 mph 66% 0 in 42 W/m2
14:29 55.4 °F 43.9 °F 30 in WNW 4 mph 12 mph 65% 0 in 37 W/m2
14:34 55.4 °F 44.2 °F 30 in WNW 4.9 mph 8 mph 66% 0 in 32 W/m2
14:39 55.6 °F 44.4 °F 30 in SSW 2 mph 10 mph 66% 0 in 30 W/m2
14:44 55.6 °F 44.4 °F 30 in NW 2 mph 4 mph 66% 0 in 35 W/m2
14:49 55.6 °F 44.4 °F 30 in WNW 2 mph 4 mph 66% 0 in 54 W/m2
14:54 55.6 °F 44.4 °F 30 in WSW 4 mph 6 mph 66% 0 in 69 W/m2
14:59 55.6 °F 44.4 °F 30 in South 4.9 mph 7 mph 66% 0 in 67 W/m2
15:04 55.6 °F 44.1 °F 30 in Calm   3 mph 65% 0 in 54 W/m2
15:09 55.8 °F 44.2 °F 30 in SW 2.9 mph 4 mph 65% 0 in 46 W/m2
15:14 55.6 °F 44.1 °F 30 in Calm   3 mph 65% 0 in 49 W/m2
15:19 55.6 °F 44.4 °F 30 in SSE 6 mph 11 mph 66% 0 in 60 W/m2
15:24 55.6 °F 44.4 °F 30 in North 2 mph 2 mph 66% 0 in 47 W/m2
15:29 55.6 °F 44.4 °F 30 in WNW 2.9 mph 4 mph 66% 0 in 35 W/m2
15:34 55.8 °F 44.2 °F 30 in Calm   2 mph 65% 0 in 42 W/m2
15:39 55.8 °F 44.2 °F 30 in WNW 4.9 mph 5 mph 65% 0 in 37 W/m2
15:44 55.8 °F 44.2 °F 30 in WNW 0.9 mph 4 mph 65% 0 in 30 W/m2
15:49 55.8 °F 44.2 °F 30 in North 7 mph 7 mph 65% 0 in 32 W/m2
15:54 55.8 °F 44.2 °F 30 in NW 2 mph 3 mph 65% 0 in 42 W/m2
15:59 55.8 °F 44.2 °F 30 in WNW 2 mph 3 mph 65% 0 in 44 W/m2
16:04 55.8 °F 43.7 °F 30 in WSW 4 mph 10 mph 64% 0 in 37 W/m2
16:09 55.9 °F 43.9 °F 30 in Calm   3 mph 64% 0 in 32 W/m2
16:14 56.1 °F 43.7 °F 30 in Calm   7 mph 63% 0 in 32 W/m2
16:19 56.1 °F 43.7 °F 30 in NNE 2.9 mph 3 mph 63% 0 in 23 W/m2
16:24 56.1 °F 43.7 °F 30 in NW 2.9 mph 9 mph 63% 0 in 18 W/m2
16:29 55.9 °F 43.9 °F 30 in NW 2.9 mph 6 mph 64% 0 in 12 W/m2
16:34 55.8 °F 44.2 °F 30 in NNE 2 mph 9 mph 65% 0 in 14 W/m2
16:40 55.8 °F 44.2 °F 30 in North 2.9 mph 4 mph 65% 0 in 11 W/m2
16:45 55.6 °F 44.1 °F 30 in North 2 mph 9 mph 65% 0 in 11 W/m2
16:50 55.6 °F 44.4 °F 30 in NNE 0.9 mph 5 mph 66% 0 in 9 W/m2
16:55 55.4 °F 44.2 °F 30 in WSW 0.9 mph 9 mph 66% 0 in 5 W/m2
17:00 55.4 °F 43.9 °F 30 in Calm   5 mph 65% 0 in 0 W/m2
17:05 55.2 °F 44.1 °F 30 in North 4 mph 4 mph 66% 0 in 0 W/m2
17:10 55.2 °F 44.1 °F 30 in NE 2 mph 8 mph 66% 0 in 0 W/m2
17:15 55 °F 43.9 °F 30 in NNW 2 mph 4 mph 66% 0 in 0 W/m2
17:20 55.2 °F 43.7 °F 30 in WNW 2.9 mph 8 mph 65% 0 in 0 W/m2
17:25 55.2 °F 43.7 °F 30 in WNW 2 mph 4 mph 65% 0 in 0 W/m2
17:30 55.2 °F 43.7 °F 30 in NW 2 mph 3 mph 65% 0 in 0 W/m2
17:35 55.2 °F 43.7 °F 30 in West 8.9 mph 9 mph 65% 0 in 0 W/m2
17:40 55.2 °F 44.1 °F 30 in WNW 4 mph 7 mph 66% 0 in 0 W/m2
17:45 54.9 °F 44.1 °F 30 in West 2 mph 4 mph 67% 0 in 0 W/m2
17:50 54.9 °F 44.1 °F 30 in SSW 0.9 mph 11 mph 67% 0 in 0 W/m2
17:55 54.7 °F 44.2 °F 30 in WNW 2 mph 4 mph 68% 0 in 0 W/m2
18:00 54.3 °F 44.1 °F 30 in ENE 2 mph 11 mph 68% 0 in 0 W/m2
18:05 54.3 °F 44.1 °F 30 in Calm   7 mph 68% 0 in 0 W/m2
18:10 54.3 °F 44.4 °F 30.1 in NE 4 mph 10 mph 69% 0 in 0 W/m2
18:15 54.3 °F 44.1 °F 30.1 in NW 2 mph 6 mph 68% 0 in 0 W/m2
18:20 54.3 °F 44.1 °F 30.1 in SSW 0.9 mph 3 mph 68% 0 in 0 W/m2
18:25 54.3 °F 44.4 °F 30.1 in West 4 mph 11 mph 69% 0 in 0 W/m2
18:30 54.3 °F 44.1 °F 30.1 in WNW 2 mph 4 mph 68% 0 in 0 W/m2
18:35 54.3 °F 44.4 °F 30.1 in West 2 mph 10 mph 69% 0 in 0 W/m2
18:40 54.3 °F 44.4 °F 30.1 in NNW 0.9 mph 4 mph 69% 0 in 0 W/m2
18:45 54.3 °F 44.4 °F 30.1 in WSW 2 mph 10 mph 69% 0 in 0 W/m2
18:50 54.3 °F 44.8 °F 30.1 in NW 4.9 mph 8 mph 70% 0 in 0 W/m2
18:55 54.3 °F 44.4 °F 30.1 in West 2.9 mph 10 mph 69% 0 in 0 W/m2
19:00 54.3 °F 44.8 °F 30.1 in SW 4 mph 8 mph 70% 0 in 0 W/m2
19:05 54.3 °F 44.8 °F 30.1 in NW 2.9 mph 9 mph 70% 0 in 0 W/m2
19:10 54.1 °F 45 °F 30.1 in WSW 4 mph 6 mph 71% 0 in 0 W/m2
19:15 54.1 °F 45.3 °F 30.1 in West 0.9 mph 9 mph 72% 0 in 0 W/m2
19:20 53.8 °F 45.3 °F 30.1 in West 0.9 mph 4 mph 73% 0 in 0 W/m2
19:25 53.4 °F 45.3 °F 30.1 in WSW 2 mph 6 mph 74% 0 in 0 W/m2
19:30 53.2 °F 45.5 °F 30.1 in SSW 4 mph 8 mph 75% 0.01 in 0 W/m2
19:35 52.9 °F 45.9 °F 30.1 in NW 4 mph 5 mph 77% 0.01 in 0 W/m2
19:40 52.5 °F 45.9 °F 30.1 in West 0.9 mph 8 mph 78% 0.01 in 0 W/m2
19:45 52.3 °F 46.4 °F 30.1 in WNW 2 mph 4 mph 80% 0.02 in 0 W/m2
19:50 52 °F 46.4 °F 30.1 in WNW 2 mph 3 mph 81% 0.02 in 0 W/m2
19:55 51.6 °F 46.2 °F 30.1 in Calm   2 mph 82% 0.02 in 0 W/m2
20:00 51.4 °F 46.4 °F 30.1 in Calm   3 mph 83% 0.02 in 0 W/m2
20:05 51.3 °F 46.2 °F 30.1 in Calm   2 mph 83% 0.02 in 0 W/m2
20:10 51.1 °F 46.4 °F 30.1 in Calm   2 mph 84% 0.02 in 0 W/m2
20:15 50.9 °F 46.6 °F 30.1 in WNW 2 mph 4 mph 85% 0.02 in 0 W/m2
20:20 50.7 °F 46.4 °F 30.1 in SW 0.9 mph 3 mph 85% 0.02 in 0 W/m2
20:25 50.7 °F 46.4 °F 30.1 in Calm   1 mph 85% 0.02 in 0 W/m2
20:30 50.5 °F 46.2 °F 30.1 in WNW 0.9 mph 1 mph 85% 0.02 in 0 W/m2
20:36 50.5 °F 46.2 °F 30.1 in NW 2 mph 4 mph 85% 0.02 in 0 W/m2
20:41 50.7 °F 46.4 °F 30.1 in Calm   4 mph 85% 0.02 in 0 W/m2
20:46 51.1 °F 46 °F 30.1 in SE 2 mph 4 mph 83% 0.01 in 0 W/m2
20:51 51.4 °F 46.4 °F 30.1 in WSW 2 mph 3 mph 83% 0.01 in 0 W/m2
20:56 51.6 °F 46.2 °F 30.1 in Calm   5 mph 82% 0.01 in 0 W/m2
21:01 51.8 °F 46.4 °F 30.1 in West 0.9 mph 10 mph 82% 0.01 in 0 W/m2
21:06 51.8 °F 46.4 °F 30.1 in Calm   4 mph 82% 0 in 0 W/m2
21:11 51.8 °F 46.2 °F 30.1 in Calm   4 mph 81% 0 in 0 W/m2
21:16 51.8 °F 46.2 °F 30.1 in Calm   2 mph 81% 0 in 0 W/m2
21:21 51.8 °F 46.2 °F 30.1 in ESE 0.9 mph 6 mph 81% 0 in 0 W/m2
21:26 51.6 °F 46 °F 30.1 in Calm   3 mph 81% 0 in 0 W/m2
21:31 51.6 °F 46 °F 30.1 in Calm   3 mph 81% 0 in 0 W/m2
21:36 51.4 °F 46.2 °F 30.1 in ENE 2 mph 2 mph 82% 0 in 0 W/m2
21:41 51.1 °F 46 °F 30.1 in Calm   4 mph 83% 0 in 0 W/m2
21:46 50.7 °F 46 °F 30.1 in Calm     84% 0 in 0 W/m2
21:51 50.5 °F 45.9 °F 30.2 in Calm   4 mph 84% 0 in 0 W/m2
21:56 50.4 °F 46 °F 30.2 in South 0.9 mph 1 mph 85% 0 in 0 W/m2
22:01 50 °F 46 °F 30.2 in Calm   3 mph 86% 0 in 0 W/m2
22:06 49.8 °F 45.9 °F 30.2 in Calm     86% 0 in 0 W/m2
22:11 49.6 °F 45.7 °F 30.2 in Calm     86% 0 in 0 W/m2
22:16 49.6 °F 45.9 °F 30.2 in Calm   2 mph 87% 0 in 0 W/m2
22:21 49.5 °F 45.7 °F 30.2 in SW 0.9 mph 3 mph 87% 0 in 0 W/m2
22:26 49.6 °F 45.9 °F 30.2 in ENE 2.9 mph 3 mph 87% 0 in 0 W/m2
22:31 49.5 °F 45.7 °F 30.2 in Calm   1 mph 87% 0 in 0 W/m2
22:36 49.5 °F 46 °F 30.2 in Calm   2 mph 88% 0 in 0 W/m2
22:41 49.3 °F 45.9 °F 30.2 in Calm   1 mph 88% 0 in 0 W/m2
22:46 49.3 °F 45.9 °F 30.2 in Calm     88% 0 in 0 W/m2
22:51 49.3 °F 46.2 °F 30.2 in ESE 0.9 mph 2 mph 89% 0 in 0 W/m2
22:56 49.3 °F 45.9 °F 30.2 in Calm   1 mph 88% 0 in 0 W/m2
23:01 49.3 °F 46.2 °F 30.2 in Calm   1 mph 89% 0 in 0 W/m2
23:06 49.3 °F 46.2 °F 30.2 in Calm     89% 0 in 0 W/m2
23:11 49.3 °F 46.2 °F 30.2 in Calm     89% 0 in 0 W/m2
23:16 49.3 °F 46.2 °F 30.2 in Calm   1 mph 89% 0 in 0 W/m2
23:21 49.1 °F 46 °F 30.2 in Calm     89% 0 in 0 W/m2
23:26 49.3 °F 46.2 °F 30.2 in Calm   1 mph 89% 0 in 0 W/m2
23:31 49.3 °F 45.9 °F 30.2 in West 0.9 mph 2 mph 88% 0 in 0 W/m2
23:36 49.5 °F 46 °F 30.2 in West 0.9 mph 1 mph 88% 0 in 0 W/m2
23:41 49.6 °F 45.9 °F 30.2 in West 2 mph 3 mph 87% 0 in 0 W/m2
23:46 50.2 °F 46.2 °F 30.2 in Calm   2 mph 86% 0 in 0 W/m2
23:52 50.5 °F 46.2 °F 30.2 in Calm   6 mph 85% 0 in 0 W/m2
23:57 50.7 °F 46 °F 30.2 in Calm   1 mph 84% 0 in 0 W/m2
Juneau County Weather
Compliments of Weather Underground - 4 mb